Flag for Poland Weather past 2 weeks in Koszalin, Poland

Now
74 °F

Overcast.


Feels Like: 76 °F
Forecast: 62 / 71 °F
Wind: 2 mph from North

Location: Koszalin

Current Time: Jul 7, 2015 at 7:55:51 PM

Latest Report: Jul 7, 2015 at 7:00 PM


Visibility: 19 mi

Pressure: 29.78 "Hg

Humidity: 62%

Dew point: 60 °F

Location of KoszalinLocation

Historic Weather in Koszalin — Graph

°F

Koszalin temperature yesterday

Maximum temperature yesterday: 78 °F (at 12:00 AM)
Minimum temperature yesterday: 61 °F (at 10:00 PM)
Average temperature yesterday: 68 °F

Past Weeks' High & Low Weather Summary

 TemperatureHumidityPressure
High89 °F (Jul 4, 4:00 PM)96% (Jun 23, 5:00 AM)30.39 "Hg (Jun 23, 5:00 AM)
Low51 °F (Jul 1, 5:00 AM)29% (Jul 4, 4:00 PM)29.60 "Hg (Jun 23, 4:00 AM)
Average64 °F72%30.08 "Hg
* Reported Jun 22 8:00 PM — Jul 7 6:00 PM, Koszalin, Weather by CustomWeather, © 2015

Note: Actual official high and low records may vary slightly from our data, if they occured in-between our weather recording intervals... More about our weather records

Advertising

Koszalin weather history for previous 24 hours

 ConditionsComfort  
Time TempWeatherWind HumidityBarometerVisibility
6:00 PM
Tue, Jul 7
73 °FOvercast.2 mph58%29.81 "Hg22 mi
5:00 PM74 °FPassing clouds.3 mph56%29.83 "Hg19 mi
4:00 PM73 °FPassing clouds.2 mph56%29.86 "Hg19 mi
3:00 PM73 °FPassing clouds.2 mph60%29.89 "Hg19 mi
2:00 PM72 °FPassing clouds.5 mph58%29.91 "Hg22 mi
1:00 PM72 °FPassing clouds.3 mph62%29.92 "Hg19 mi
12:00 PM72 °FPassing clouds.5 mph56%29.94 "Hg22 mi
11:00 AM71 °FScattered clouds.6 mph57%29.96 "Hg19 mi
10:00 AM68 °FPassing clouds.5 mph64%29.96 "Hg25 mi
9:00 AM67 °FPassing clouds.3 mph69%29.98 "Hg19 mi
8:00 AM64 °FPassing clouds.2 mph76%29.98 "Hg19 mi
7:00 AM60 °FPassing clouds.2 mph80%30.00 "Hg17 mi
6:00 AM57 °FPassing clouds.2 mph82%30.00 "Hg22 mi
4:00 AM56 °FPassing clouds.2 mph84%30.02 "Hg25 mi
3:00 AM56 °FPassing clouds.2 mph84%30.04 "Hg22 mi
2:00 AM57 °FClear.3 mph83%30.03 "Hg14 mi
1:00 AM58 °FPassing clouds.2 mph83%30.05 "Hg22 mi
12:00 AM59 °FPassing clouds.2 mph80%30.05 "Hg25 mi
10:00 PM
Mon, Jul 6
61 °FPassing clouds.2 mph73%30.06 "Hg28 mi
9:00 PM63 °FScattered clouds.5 mph67%30.06 "Hg31 mi
8:00 PM65 °FPassing clouds.6 mph62%30.06 "Hg25 mi
7:00 PM66 °FPassing clouds.7 mph62%30.06 "Hg22 mi
Weather by CustomWeather, © 2015

See weather overviewHow to use our weather pages